XIWANG-1 (HOPE-1) (36122 NORAD) Tracking and Keplerian Element Data

This shows tracking and keplerian element data for the satellite.

Feedback or suggestion? Click here.




ElementValue
Catalog36122
NameXIWANG-1 (HOPE-1)
Epoch Orbit62138
Epoch Day324.83799286
Epoch Year2022
RAAN290.5933
Inclination100.2071
Eccentricity0.0007395
Argument of Perigee346.6752
Mean Anonmoly13.4165
Mean Motion13.16374505
Decay Rate-3.4E-07
L11 36122U 09072B 22324.83799286 -.00000034 00000+0 23226-4 0 9993
L22 36122 100.2071 290.5933 0007395 346.6752 13.4165 13.16374505621380



Live tracking and technical data element details for XIWANG-1 (HOPE-1) (NORAD 36122). XIWANG-1 (HOPE-1) can be tracked NOW for your location showing map with azimuth and elevation plus other details from your city location.







IsCatalogInMostPopularTable: catalog: 36122, numindb: 313
Update: records affected: 1



GetName: 36122 XIWANG-1 (HOPE-1)

Hit Count: updated at: Mon, 28 Nov 2022 04:51:33 GMT